#timestamp,LO_Frequency,Hit,StdDev 
1701748815.7,286047003.6,N
1701748835.5,286047003.0,N
1701748855.4,286047006.0,Y
1701748875.2,286047005.6,P
1701748895.0,286047003.0,N
1701748895.9,286047003.0,N
1701748915.8,286047005.7,Y
1701748935.6,286047004.4,P
1701748955.4,286047001.4,N
1701748975.3,286047002.7,N
1701748995.1,286047002.5,N
1701748996.0,286047002.5,N
1701749015.8,286047001.8,N
1701749035.7,286047001.5,N
1701749055.5,286047002.8,Y
1701749075.3,286046999.6,P
1701749095.2,286046999.2,N
1701749115.9,286046999.6,N
1701749135.7,286046998.3,N
1701749155.6,286046999.4,N
1701749175.4,286046996.7,N
1701749195.2,286046999.3,N
1701749215.1,286046998.4,N
1701749216.0,286046998.4,N
1701749235.8,286046999.0,N
1701749255.6,286046998.6,N
1701749275.5,286046996.9,N
1701749295.3,286046995.3,Y
1701749315.1,286046998.0,P
1701749335.9,286046997.4,P
1701749355.7,286047000.8,N
1701749375.5,286047001.2,N
1701749395.4,286047000.0,N
1701749415.2,286047001.1,N
1701749435.0,286046999.9,N
1701749435.9,286046999.9,N
1701749455.8,286047000.9,N
1701749475.6,286046998.7,N
1701749495.4,286046999.3,N
1701749515.3,286047001.1,N
1701749535.1,286046997.8,N
1701749555.8,286046998.9,N
1701749575.7,286046998.9,N
1701749595.5,286046998.2,N
1701749615.3,286046998.6,N
1701749635.2,286047001.1,N
1701749655.9,286046998.8,N
1701749675.7,286047001.5,N
1701749695.6,286047001.5,N
1701749715.4,286047000.3,N
1701749735.2,286047000.8,N
1701749755.1,286047001.0,N
1701749756.0,286047001.0,N
1701749775.8,286047000.7,N
1701749795.6,286046998.4,N
1701749815.5,286046999.8,N
1701749835.3,286047002.8,N
1701749855.1,286046999.9,N
1701749875.9,286047001.1,N
1701749895.7,286046999.1,N
1701749915.5,286046998.2,N
1701749935.4,286046998.5,N
1701749955.2,286047000.8,N
1701749975.0,286046999.9,N
1701749975.9,286046999.9,N
1701749995.8,286046999.9,N
1701750015.6,286046999.1,N
1701750035.4,286046997.4,N
1701750055.3,286047001.2,N
1701750075.1,286046998.2,N
1701750095.8,286047002.8,N
1701750115.7,286047000.3,N
1701750135.5,286047000.2,N
1701750155.3,286047002.2,N
1701750175.2,286047002.5,N
1701750195.9,286047000.2,N
1701750215.7,286047002.0,N
1701750235.6,286047002.6,N
1701750255.4,286047002.4,N
1701750275.2,286047004.4,N
1701750295.1,286047002.7,N
1701750296.0,286047002.7,N
1701750315.8,286047000.9,N
1701750335.6,286046998.5,N
1701750355.5,286047001.2,N
1701750375.3,286047000.2,N
1701750395.1,286047004.3,N
1701750415.9,286047004.4,N
1701750435.7,286047004.1,N
1701750455.5,286047003.5,N
1701750475.4,286047001.5,N
1701750495.2,286047002.7,N
1701750515.0,286047000.6,N
1701750515.9,286047000.6,N
1701750535.8,286047001.1,N
1701750555.6,286047000.4,N
1701750575.4,286047002.0,N
1701750595.3,286047002.9,N
1701750615.1,286047001.4,N
1701750635.8,286047002.1,N
1701750655.7,286047004.0,N
1701750675.5,286047004.0,N
1701750695.3,286047002.7,N
1701750715.2,286047001.1,N
1701750735.0,286046999.8,N
1701750735.9,286046999.8,N
1701750755.7,286047000.9,N
1701750775.6,286047002.5,N
1701750795.4,286047003.5,N
1701750815.2,286047002.0,N
1701750835.1,286047002.8,N
1701750836.0,286047002.8,N
1701750855.8,286046998.5,N
1701750875.6,286046998.6,N
1701750895.5,286046997.0,N
1701750915.3,286046997.0,N
1701750935.1,286046996.8,N
1701750955.9,286046998.1,N
1701750975.7,286047004.1,N
1701750995.5,286047007.1,Y
1701751015.4,286047004.0,P
1701751035.2,286047005.9,P
1701751055.0,286047005.3,N
1701751055.9,286047005.3,N
1701751075.8,286047004.6,N
1701751095.6,286047006.4,Y
1701751115.4,286047005.1,P
1701751135.3,286047010.0,P
1701751155.1,286047009.6,P
1701751175.8,286047010.3,Y
1701751195.7,286047005.9,P
1701751215.5,286047003.1,P
1701751235.3,286047002.5,N
1701751255.2,286047001.2,N
1701751275.0,286046999.3,N
1701751275.9,286046999.3,N
1701751295.8,286046998.9,N
1701751315.6,286047002.1,N
1701751335.4,286047001.9,N
1701751355.2,286047001.4,N
1701751375.1,286047002.5,N
1701751376.0,286047002.5,N
1701751395.8,286046998.9,N
1701751415.7,286046998.1,N
1701751435.5,286047001.1,N
1701751455.3,286047000.2,N
1701751475.2,286046999.8,N
1701751495.9,286047002.6,N
1701751515.7,286047002.7,N
1701751535.5,286047003.7,N
1701751555.4,286047005.5,N
1701751575.2,286047001.4,N
1701751595.0,286047001.2,N
1701751596.0,286047001.2,N
1701751615.8,286046998.8,N
1701751635.6,286047000.5,N
1701751655.5,286047001.2,N
1701751675.3,286047002.2,N
1701751695.1,286047002.7,N
1701751715.9,286047002.5,N
1701751735.7,286047000.8,N
1701751755.5,286047000.9,N
1701751775.4,286047004.0,N
1701751795.2,286047001.9,N
1701751815.0,286047005.4,Y
1701751815.9,286047005.4,P
1701751835.8,286047003.2,N
1701751855.6,286047001.3,N
1701751875.4,286047005.4,Y
1701751895.3,286047003.6,P
1701751915.1,286047001.5,P
1701751916.0,286047001.5,N
1701751935.8,286047001.8,N
1701751955.7,286046999.9,N
1701751975.5,286047002.2,N
1701751995.3,286047000.2,N
1701752015.2,286046998.1,N
1701752035.9,286047000.6,N
1701752055.7,286047000.0,N
1701752075.6,286047005.2,Y
1701752095.4,286047004.2,P
1701752115.2,286047000.4,N
1701752135.1,286047000.8,N
1701752136.0,286047000.8,N
1701752155.8,286046996.6,N
1701752175.6,286046997.0,N
1701752195.5,286046998.2,N
1701752215.3,286047000.1,N
1701752235.1,286046998.8,N
1701752255.9,286046996.5,N
1701752275.7,286046993.9,N
1701752295.5,286046990.9,Y
1701752315.4,286046989.1,P
1701752335.2,286046989.3,N
1701752355.0,286046987.2,N
1701752355.9,286046987.2,N
1701752375.8,286046987.2,N
1701752395.6,286046986.9,Y
